Location: The Saddle
(36.8333°N, 80.3417°W)
Time: 20:25:41
(UTC-05:00)

A-11 Canister half - Pass Details

Date: 10 December 2023
Orbit: 1512 x 1687 km, 47.2° (Epoch: 26 February)

Event Time Altitude Azimuth Distance (km) Brightness Sun altitude
Rises 03:00:24 0° 293° (WNW) 4,783 - -51.7°
Reaches altitude 10° 03:03:37 10° 299° (WNW) 3,822 - -51.0°
Maximum altitude 03:13:06 50° 13° (NNE) 2,006 - -49.2°
Exits shadow 03:16:02 41° 56° (NE) 2,264 9.9 -48.6°
Drops below altitude 10° 03:22:50 10° 87° (E) 3,934 11.7 -47.2°
Sets 03:26:12 0° 93° (E) 4,932 12.4 -46.6°
